Weather reports worldwide

Advertisment
Plymouth, United Kingdom (3827): temperature & dewpoint: 23.10.2020 10:00:00 - 29.10.2020 10:00:00 (GMT)Plymouth, United Kingdom (3827): wind speed & gusts: 23.10.2020 10:00:00 - 29.10.2020 10:00:00 (GMT)Plymouth, United Kingdom (3827): wind direction: 23.10.2020 10:00:00 - 29.10.2020 10:00:00 (GMT)Plymouth, United Kingdom (3827): reduced air pressure: 23.10.2020 10:00:00 - 29.10.2020 10:00:00 (GMT)Plymouth, United Kingdom (3827): visibility: 23.10.2020 10:00:00 - 29.10.2020 10:00:00 (GMT)Plymouth, United Kingdom (3827): precipitation: 23.10.2020 10:00:00 - 29.10.2020 10:00:00 (GMT)
Date & Time tt [°C] td [°C] ff [km/h] ff [kn] fx [km/h] fx [kn] dd ppp [hPa] vv [km] rr [mm]
29.10.2020 10:00:00 13,5 12,8 42 23 57 31 SW 1013,4 9 0,0
29.10.2020 09:00:00 13,2 12,8 41 22 57 31 SW 1013,3 11 0,0
29.10.2020 08:00:00 13,0 12,7 39 21 55 30 SW 1013,0 7 0,0
29.10.2020 07:00:00 12,8 12,5 41 22 54 29 SW 1012,7 6 0,6
29.10.2020 06:00:00 12,3 11,8 39 21 52 28 SW 1013,0 5 0,8
29.10.2020 05:00:00 12,4 11,5 34 18 46 25 SW 1013,0 6 0,0
29.10.2020 04:00:00 12,5 10,9 31 17 - - WSW 1012,5 10 0,0
29.10.2020 03:00:00 11,8 10,3 28 15 - - WSW 1012,8 10 0,0
29.10.2020 02:00:00 11,2 9,8 26 14 - - W 1012,4 12 0,0
29.10.2020 01:00:00 11,2 9,5 28 15 - - WSW 1012,2 12 0,0
29.10.2020 00:00:00 10,8 9,4 29 16 - - WSW 1011,7 15 0,0
28.10.2020 23:00:00 10,1 8,9 28 15 50 27 WSW 1011,3 6 0,2
28.10.2020 22:00:00 10,9 8,6 22 12 48 26 WSW 1010,4 14 0,0
28.10.2020 21:00:00 11,0 7,9 35 19 54 29 WSW 1009,6 17 0,0
28.10.2020 20:00:00 10,9 8,3 31 17 - - WSW 1008,6 15 0,0
28.10.2020 19:00:00 10,4 8,0 29 16 - - W 1007,9 16 0,0
28.10.2020 18:00:00 10,9 7,5 34 18 48 26 W 1007,0 17 0,0
28.10.2020 17:00:00 10,5 8,0 34 18 54 29 WSW 1005,8 19 0,0
28.10.2020 16:00:00 10,4 7,9 35 19 55 30 WSW 1005,3 23 0,0
28.10.2020 15:00:00 10,4 9,6 29 16 46 25 WSW 1004,4 17 1,2
28.10.2020 14:00:00 9,2 8,4 18 10 65 35 WNW 1004,2 22 2,4
28.10.2020 13:00:00 9,9 9,1 35 19 63 34 W 1003,8 4,0 4,0
28.10.2020 12:00:00 11,6 8,8 35 19 59 32 SW 1003,4 17 0,0
28.10.2020 11:00:00 11,6 9,0 39 21 65 35 WSW 1003,4 15 0,2
28.10.2020 10:00:00 10,1 9,2 29 16 57 31 WSW 1003,2 10 2,2
28.10.2020 09:00:00 12,1 8,6 31 17 59 32 WSW 1002,9 15 0,0
28.10.2020 08:00:00 11,7 9,0 41 22 54 29 SW 1002,3 14 0,0
28.10.2020 07:00:00 11,6 8,7 37 20 57 31 SW 1002,0 14 0,0
28.10.2020 06:00:00 11,5 7,4 37 20 59 32 WSW 1001,7 17 0,0
28.10.2020 05:00:00 11,6 7,7 31 17 57 31 WSW 1001,4 16 0,0
28.10.2020 04:00:00 11,2 8,1 39 21 63 34 WSW 1001,1 15 0,0
28.10.2020 03:00:00 11,2 6,8 41 22 65 35 SW 1001,4 22 0,0
28.10.2020 02:00:00 10,9 7,4 41 22 72 39 WSW 1001,5 17 0,0
28.10.2020 01:00:00 11,0 7,7 34 18 63 34 WSW 1001,2 17 0,0
28.10.2020 00:00:00 11,2 7,4 41 22 63 34 SW 1000,9 19 0,0
27.10.2020 23:00:00 10,3 7,6 31 17 63 34 SW 1001,1 18 0,2
27.10.2020 22:00:00 11,1 6,2 42 23 83 45 WSW 1001,4 22 0,2
27.10.2020 21:00:00 11,8 7,5 39 21 50 27 WSW 1000,7 18 0,0
27.10.2020 20:00:00 11,0 6,8 34 18 52 28 WSW 1000,3 18 0,0
27.10.2020 19:00:00 11,5 7,6 31 17 - - WSW 999,7 15 0,0
27.10.2020 18:00:00 11,8 8,1 31 17 - - WSW 999,1 13 0,0
27.10.2020 17:00:00 11,7 8,3 24 13 - - W 998,5 12 0,0
27.10.2020 16:00:00 12,1 7,9 29 16 54 29 W 997,9 14 0,0
27.10.2020 15:00:00 13,1 8,4 35 19 55 30 W 997,1 17 0,0
27.10.2020 14:00:00 13,4 8,5 34 18 50 27 W 996,7 21 0,0
27.10.2020 13:00:00 13,0 11,4 28 15 59 32 W 995,9 26 0,0
27.10.2020 12:00:00 13,7 12,3 26 14 - - W 995,6 16 0,0
27.10.2020 11:00:00 14,0 13,9 35 19 57 31 WSW 995,3 25 0,2
27.10.2020 10:00:00 13,7 13,7 42 23 61 33 SW 994,6 6 0,2
27.10.2020 09:00:00 13,1 13,1 46 25 68 37 SSW 994,5 2,2 0,4
27.10.2020 08:00:00 12,3 12,3 52 28 67 36 S 995,6 3,2 0,4
27.10.2020 07:00:00 11,6 11,4 37 20 59 32 S 996,7 2,3 1,0
27.10.2020 06:00:00 10,9 10,5 42 23 59 32 S 998,3 4,2 0,8
27.10.2020 05:00:00 10,5 9,6 31 17 50 27 SSW 999,6 9 0,2
27.10.2020 04:00:00 10,6 9,9 28 15 48 26 SSW 1000,6 10 0,6
27.10.2020 03:00:00 10,0 8,0 29 16 59 32 SW 1001,9 11 0,4
27.10.2020 02:00:00 11,1 8,5 28 15 - - SW 1002,7 20 0,0
27.10.2020 01:00:00 10,8 7,1 26 14 - - WSW 1003,2 21 0,0
27.10.2020 00:00:00 10,5 7,9 24 13 - - WSW 1003,7 16 0,0
26.10.2020 23:00:00 10,0 7,9 24 13 - - WSW 1004,3 17 0,0
26.10.2020 22:00:00 10,0 8,2 22 12 - - W 1004,6 20 0,0
26.10.2020 21:00:00 9,4 7,9 18 10 - - W 1004,5 24 0,0
26.10.2020 20:00:00 9,0 7,9 13 7 - - W 1004,2 16 0,0
26.10.2020 19:00:00 9,3 8,1 16 9 - - W 1004,0 26 0,0
26.10.2020 18:00:00 9,3 8,1 16 9 - - W 1003,6 19 0,0
26.10.2020 17:00:00 10,2 8,6 21 11 - - WNW 1003,2 23 0,4
26.10.2020 16:00:00 11,2 8,6 24 13 - - W 1002,8 25 0,0
26.10.2020 15:00:00 11,4 9,0 22 12 - - WNW 1002,3 21 0,0
26.10.2020 14:00:00 10,8 9,2 13 7 - - W 1002,0 22 1,0
26.10.2020 13:00:00 12,8 7,1 28 15 - - WNW 1001,6 18 0,0
26.10.2020 12:00:00 12,2 8,2 24 13 48 26 WNW 1001,4 20 0,0
26.10.2020 11:00:00 12,8 9,0 28 15 46 25 W 1001,0 21 0,0
26.10.2020 10:00:00 11,9 9,5 29 16 - - WNW 1000,3 17 0,0
26.10.2020 09:00:00 10,3 9,4 28 15 48 26 W 999,8 15 0,4
26.10.2020 08:00:00 10,9 8,6 31 17 - - W 999,1 14 0,0
26.10.2020 07:00:00 10,3 8,6 28 15 46 25 W 998,5 13 0,0
26.10.2020 06:00:00 10,0 8,6 26 14 - - W 998,1 12 0,0
26.10.2020 05:00:00 9,8 8,2 22 12 - - W 997,9 14 0,0
26.10.2020 04:00:00 9,6 7,6 26 14 - - W 997,5 18 0,0
26.10.2020 03:00:00 10,1 7,9 28 15 - - WSW 997,4 5 0,0
26.10.2020 02:00:00 9,9 7,1 29 16 - - W 997,4 19 0,0
26.10.2020 01:00:00 9,2 7,2 24 13 48 26 W 997,4 20 0,2
26.10.2020 00:00:00 10,0 7,5 28 15 50 27 WSW 997,5 18 0,0
25.10.2020 23:00:00 10,3 7,2 29 16 - - WSW 997,7 19 0,0
25.10.2020 22:00:00 9,8 6,8 28 15 - - WSW 997,5 23 0,0
25.10.2020 21:00:00 8,2 6,2 15 8 - - W 997,2 20 0,0
25.10.2020 20:00:00 9,8 6,8 22 12 - - W 996,9 26 0,0
25.10.2020 19:00:00 9,9 6,5 26 14 - - WSW 996,6 26 0,0
25.10.2020 18:00:00 10,4 7,4 24 13 - - WSW 996,2 27 0,2
25.10.2020 17:00:00 10,8 7,9 24 13 - - SW 995,7 21 0,0
25.10.2020 16:00:00 11,4 7,4 31 17 50 27 SW 995,6 24 0,0
25.10.2020 15:00:00 11,6 8,3 37 20 54 29 SW 995,1 21 0,0
25.10.2020 14:00:00 13,1 7,8 34 18 50 27 SW 995,2 26 0,0
25.10.2020 13:00:00 11,5 6,1 37 20 61 33 SW 995,4 30 0,0
25.10.2020 12:00:00 13,3 8,0 42 23 57 31 SW 995,6 26 0,0
25.10.2020 11:00:00 12,6 7,7 29 16 50 27 SW 995,9 25 0,0
25.10.2020 10:00:00 12,0 8,9 31 17 55 30 SW 995,8 23 0,2
25.10.2020 09:00:00 12,6 8,1 42 23 55 30 SW 995,6 19 0,0
25.10.2020 08:00:00 10,1 6,9 34 18 55 30 SW 995,6 19 0,2
25.10.2020 07:00:00 11,4 7,9 34 18 55 30 SW 995,1 15 0,0
25.10.2020 06:00:00 11,4 7,8 37 20 57 31 SW 995,0 13 0,0
25.10.2020 05:00:00 11,3 7,7 39 21 54 29 SW 995,2 14 0,0
25.10.2020 04:00:00 11,0 7,3 35 19 55 30 SW 995,3 21 0,0
25.10.2020 03:00:00 11,1 7,3 41 22 59 32 SW 995,7 21 0,0
25.10.2020 02:00:00 10,8 7,8 37 20 54 29 SW 996,0 20 0,0
25.10.2020 01:00:00 9,6 8,6 29 16 83 45 SW 996,1 15 0,8
25.10.2020 00:00:00 - - - - - - - - - -
24.10.2020 23:00:00 10,9 8,2 28 15 48 26 WSW 996,4 14 0,0
24.10.2020 22:00:00 10,8 9,2 28 15 - - WSW 996,5 15 0,0
24.10.2020 21:00:00 9,7 8,3 22 12 - - W 996,1 16 0,0
24.10.2020 20:00:00 11,1 10,4 29 16 54 29 WSW 995,6 12 1,2
24.10.2020 19:00:00 11,9 11,1 42 23 54 29 SW 995,1 13 0,0
24.10.2020 18:00:00 12,0 11,6 31 17 55 30 SW 994,8 7 1,8
24.10.2020 17:00:00 11,9 11,4 29 16 78 42 SW 995,2 7 1,2
24.10.2020 16:00:00 13,4 12,4 50 27 67 36 SSW 995,1 6 0,2
24.10.2020 15:00:00 12,8 12,1 42 23 63 34 SW 996,2 9 1,0
24.10.2020 14:00:00 12,6 12,2 42 23 65 35 SSW 997,4 3,5 1,4
24.10.2020 13:00:00 12,8 12,5 35 19 74 40 SSW 997,9 4,4 1,0
24.10.2020 12:00:00 13,9 13,2 59 32 80 43 S 998,3 3,1 0,4
24.10.2020 11:00:00 14,1 13,6 52 28 74 40 S 999,7 7 0,0
24.10.2020 10:00:00 14,1 13,4 52 28 76 41 SSW 1000,6 6 0,0
24.10.2020 09:00:00 13,8 13,2 48 26 74 40 SSW 1001,6 5 0,2
24.10.2020 08:00:00 13,4 12,9 54 29 68 37 SSW 1002,3 6 0,8
24.10.2020 07:00:00 13,4 12,6 46 25 65 35 SSW 1003,0 7 0,2
24.10.2020 06:00:00 13,1 12,0 42 23 61 33 SSW 1003,9 6 0,0
24.10.2020 05:00:00 13,2 11,8 39 21 57 31 SSW 1005,2 11 0,0
24.10.2020 04:00:00 13,1 11,5 48 26 63 34 SSW 1005,7 11 0,0
24.10.2020 03:00:00 13,0 10,7 46 25 57 31 SSW 1006,9 12 0,0
24.10.2020 02:00:00 12,6 10,0 42 23 55 30 SSW 1007,5 12 0,0
24.10.2020 01:00:00 12,3 9,2 39 21 54 29 SSW 1008,5 13 0,0
24.10.2020 00:00:00 12,0 8,2 35 19 46 25 SSW 1009,1 15 0,0
23.10.2020 23:00:00 11,5 7,9 31 17 - - SSW 1010,0 16 0,0
23.10.2020 22:00:00 11,7 8,6 31 17 - - SW 1010,5 15 0,0
23.10.2020 21:00:00 10,9 8,8 26 14 50 27 SSW 1010,3 14 0,0
23.10.2020 20:00:00 11,6 7,7 18 10 - - WSW 1010,7 15 0,0
23.10.2020 19:00:00 11,0 6,9 16 9 - - WSW 1010,8 15 0,0
23.10.2020 18:00:00 10,5 7,3 13 7 - - W 1010,5 14 0,0
23.10.2020 17:00:00 11,1 6,6 15 8 - - W 1010,5 15 0,0
23.10.2020 16:00:00 12,2 7,1 16 9 - - W 1010,0 15 0,0
23.10.2020 15:00:00 13,5 7,1 24 13 - - W 1009,4 18 0,0
23.10.2020 14:00:00 13,2 6,9 21 11 - - WNW 1009,3 19 0,0
23.10.2020 13:00:00 13,0 8,9 18 10 - - WNW 1009,3 23 0,0
23.10.2020 12:00:00 12,8 11,1 21 11 - - W 1008,6 23 0,0
23.10.2020 11:00:00 12,0 11,5 34 18 46 25 SW 1008,5 7 0,2
23.10.2020 10:00:00 12,5 10,3 34 18 48 26 SW 1008,4 18 0,0

tt = temperature
td = dewpoint
ff = wind speed
fx = gusts
dd = wind direction
ppp = reduced air pressure
vv = visibility
rr = precipitation

Next stations